{"data":{"norad_id":53024,"epoch":"2026-05-25T04:07:26.082624Z","epoch_age_seconds":54200,"freshness":"FRESH","line1":"1 53024U 22076AQ  26145.17182966  .00001169  00000+0  91504-4 0  9998","line2":"2 53024  53.2137 100.7768 0001404  86.8955 273.2198 15.08847516214538","mean_motion":15.08847516,"eccentricity":0.0001404,"inclination_deg":53.2137,"raan_deg":100.7768,"arg_perigee_deg":86.8955,"mean_anomaly_deg":273.2198,"bstar":9.1504e-5,"rev_number":21453,"period_min":95.437079276074,"perigee_km":538.74914847313,"apogee_km":540.69168283545,"semimajor_km":6917.8574156543,"source":"CELESTRAK","updated_at":"2026-05-25T13:38:17.281731Z"}}